Date String (YYYY-MM-DD hh:mm:ss) UTC,Instrument flags,absolute air pressure of the measurement (hPa),sample flow rate (lpm),inlet stack bypass flow (lpm),air temperature of the measurement (°C),ambient temperature measured by the external sensor (°C),aerosol sample conditioner tube jacket temperature (°C),OPC LED temperature (°C),internal box temperature (°C),relative humidity of the measurement (%),span deviation,mass concentration of particles derived from Lorenz-Mie calculation of OPC scattering (μg/m³),mass concentration of particles derived from Lorenz-Mie calculation of OPC scattering (μg/m³),mass concentration of particles derived from Lorenz-Mie calculation of OPC scattering (μg/m³)
DateTimeUTC,F1_M11,P_M11,Q1_M11,Q2_M11,T1_M11,T2_M11,T3_M11,T4_M11,T5_M11,U1_M11,ZSPAN_M11,X0_M11,X2_M11,X1_M11
2024-02-14 12:00:00,SystemResetWarning,0822.4,5.00,000.00,018.2,017.7,000.0,026.8,020.0,15.1,0000.0,0010.27,0004.39,0003.94
2024-02-14 12:01:00,SystemResetWarning,0822.5,4.99,000.00,018.2,017.7,000.0,026.8,020.0,15.1,0000.0,0009.92,0004.42,0003.99
2024-02-14 12:02:00,SystemResetWarning,0822.6,5.01,000.00,018.2,017.7,000.0,026.8,020.0,15.1,0000.0,0009.61,0004.40,0004.00
2024-02-14 12:03:00,SystemResetWarning,0822.7,5.01,000.00,018.2,017.7,000.0,026.8,020.0,15.0,0000.0,0009.40,0004.38,0004.02
2024-02-14 12:04:00,SystemResetWarning,0822.7,5.00,000.00,018.2,017.7,000.0,026.8,020.0,14.9,0000.0,0009.47,0004.44,0004.05
2024-02-14 12:05:00,SystemResetWarning,0822.6,5.00,000.00,018.2,017.7,000.0,026.8,020.0,14.9,0000.0,0008.94,0004.44,0004.07
2024-02-14 12:06:00,SystemResetWarning,0822.6,5.00,000.00,018.2,017.7,000.0,026.8,020.0,14.9,0000.0,0008.74,0004.44,0004.09
2024-02-14 12:07:00,SystemResetWarning,0822.5,4.99,000.00,018.2,017.7,000.0,026.8,020.0,14.9,0000.0,0009.01,0004.49,0004.11
2024-02-14 12:08:00,SystemResetWarning,0822.8,4.99,000.00,018.2,017.7,000.0,026.8,020.0,14.9,0000.0,0008.50,0004.52,0004.13
2024-02-14 12:09:00,SystemResetWarning,0823.1,5.02,000.00,018.2,017.7,000.0,026.8,020.0,14.9,0000.0,0008.68,0004.59,0004.18
2024-02-14 12:10:00,SystemResetWarning,0823.1,5.00,000.00,018.2,017.7,000.0,026.8,020.0,14.9,0000.0,0008.60,0004.60,0004.20
2024-02-14 12:11:00,SystemResetWarning,0823.0,5.00,000.00,018.2,017.7,000.0,026.8,020.0,15.0,0000.0,0008.32,0004.55,0004.17
2024-02-14 12:12:00,SystemResetWarning,0823.1,5.00,000.00,018.2,017.7,000.0,026.8,020.0,15.0,0000.0,0008.17,0004.46,0004.12
2024-02-14 12:13:00,SystemResetWarning,0823.1,5.00,000.00,018.2,017.7,000.0,026.8,020.0,15.0,0000.0,0008.15,0004.45,0004.10
2024-02-14 12:14:00,SystemResetWarning,0822.9,5.00,000.00,018.2,017.7,000.0,026.8,020.0,14.9,0000.0,0008.14,0004.43,0004.07
2024-02-14 12:15:00,SystemResetWarning,0823.0,5.01,000.00,018.2,017.7,000.0,026.8,020.0,14.9,0000.0,0008.80,0004.40,0004.04
2024-02-14 12:16:00,SystemResetWarning,0822.7,5.01,000.00,018.2,017.7,000.0,026.8,020.0,15.0,0000.0,0008.78,0004.36,0004.00
2024-02-14 12:17:00,SystemResetWarning,0822.9,5.00,000.00,018.2,017.7,000.0,026.8,020.0,15.0,0000.0,0009.07,0004.34,0003.97
2024-02-14 12:18:00,SystemResetWarning,0822.7,5.00,000.00,018.2,017.7,000.0,026.8,020.0,14.9,0000.0,0009.34,0004.29,0003.93
2024-02-14 12:19:00,SystemResetWarning,0822.6,5.00,000.00,018.2,017.7,000.0,026.8,020.0,15.0,0000.0,0009.38,0004.27,0003.91
2024-02-14 12:20:00,SystemResetWarning,0822.8,5.00,000.00,018.2,017.7,000.0,026.8,020.0,15.1,0000.0,0009.12,0004.25,0003.89
2024-02-14 12:21:00,SystemResetWarning,0823.1,4.98,000.00,018.2,017.7,000.0,026.8,020.0,15.1,0000.0,0009.23,0004.24,0003.86
2024-02-14 12:22:00,SystemResetWarning,0822.8,5.02,000.00,018.2,017.7,000.0,026.8,020.0,15.2,0000.0,0009.48,0004.25,0003.87
2024-02-14 12:23:00,SystemResetWarning,0823.1,5.01,000.00,018.2,017.6,000.0,026.8,020.0,15.2,0000.0,0010.02,0004.27,0003.89
2024-02-14 12:24:00,SystemResetWarning,0823.1,4.99,000.00,018.2,017.6,000.0,026.8,020.0,15.2,0000.0,0010.44,0004.29,0003.91
2024-02-14 12:25:00,SystemResetWarning,0822.7,4.99,000.00,018.2,017.6,000.0,026.8,020.0,15.2,0000.0,0010.84,0004.30,0003.92
2024-02-14 12:26:00,SystemResetWarning,0822.7,5.00,000.00,018.2,017.6,000.0,026.9,020.0,15.3,0000.0,0010.23,0004.28,0003.91
2024-02-14 12:27:00,SystemResetWarning,0822.8,5.02,000.00,018.2,017.6,000.0,026.9,020.0,15.2,0000.0,0010.16,0004.29,0003.93
2024-02-14 12:28:00,SystemResetWarning,0822.7,5.00,000.00,018.2,017.6,000.0,026.8,020.0,15.1,0000.0,0010.03,0004.32,0003.95
2024-02-14 12:29:00,SystemResetWarning,0822.6,4.99,000.00,018.2,017.5,000.0,026.8,020.0,15.1,0000.0,0009.89,0004.36,0003.96
2024-02-14 12:30:00,SystemResetWarning,0823.1,4.99,000.00,018.2,017.5,000.0,026.8,020.0,15.2,0000.0,0009.38,0004.34,0003.96
2024-02-14 12:31:00,SystemResetWarning,0823.1,5.01,000.00,018.2,017.5,000.0,026.8,020.0,15.3,0000.0,0009.66,0004.34,0003.96
2024-02-14 12:32:00,SystemResetWarning,0822.7,5.01,000.00,018.2,017.5,000.0,026.8,020.0,15.4,0000.0,0009.93,0004.39,0003.97
2024-02-14 12:33:00,SystemResetWarning,0822.7,5.00,000.00,018.2,017.5,000.0,026.9,020.0,15.4,0000.0,0010.06,0004.39,0003.99
2024-02-14 12:34:00,SystemResetWarning,0822.8,4.99,000.00,018.2,017.5,000.0,026.9,020.0,15.3,0000.0,0009.48,0004.39,0003.98
2024-02-14 12:35:00,SystemResetWarning,0822.9,5.00,000.00,018.2,017.4,000.0,026.9,020.0,15.3,0000.0,0009.38,0004.38,0003.97
2024-02-14 12:36:00,SystemResetWarning,0822.4,5.01,000.00,018.2,017.4,000.0,026.9,020.0,15.3,0000.0,0008.83,0004.41,0003.98
2024-02-14 12:37:00,SystemResetWarning,0822.4,5.01,000.00,018.2,017.4,000.0,026.9,020.0,15.4,0000.0,0008.84,0004.45,0004.00
2024-02-14 12:38:00,SystemResetWarning,0822.5,5.01,000.00,018.2,017.4,000.0,026.9,020.0,15.3,0000.0,0008.89,0004.46,0004.01
2024-02-14 12:39:00,SystemResetWarning,0823.0,5.00,000.00,018.2,017.4,000.0,026.9,020.0,15.3,0000.0,0009.59,0004.44,0004.00
2024-02-14 12:40:00,SystemResetWarning,0822.8,5.00,000.00,018.2,017.4,000.0,026.9,020.0,15.3,0000.0,0009.28,0004.41,0003.99
2024-02-14 12:41:00,SystemResetWarning,0822.6,4.99,000.00,018.2,017.4,000.0,026.9,020.0,15.4,0000.0,0009.00,0004.39,0003.99
2024-02-14 12:42:00,SystemResetWarning,0822.6,5.00,000.00,018.2,017.4,000.0,026.9,020.0,15.2,0000.0,0008.66,0004.38,0003.99
2024-02-14 12:43:00,SystemResetWarning,0822.6,5.00,000.00,018.2,017.4,000.0,026.9,020.0,15.2,0000.0,0008.55,0004.37,0004.00
2024-02-14 12:44:00,SystemResetWarning,0822.7,4.99,000.00,018.2,017.4,000.0,026.9,020.0,15.2,0000.0,0008.18,0004.36,0004.00
2024-02-14 12:45:00,SystemResetWarning,0822.7,4.99,000.00,018.2,017.4,000.0,026.9,020.0,15.3,0000.0,0008.60,0004.38,0004.02
2024-02-14 12:46:00,SystemResetWarning,0822.8,5.00,000.00,018.3,017.4,000.0,026.9,020.0,15.3,0000.0,0008.76,0004.41,0004.05
2024-02-14 12:47:00,SystemResetWarning,0822.9,5.00,000.00,018.2,017.4,000.0,026.9,020.0,15.2,0000.0,0008.75,0004.42,0004.06
2024-02-14 12:48:00,SystemResetWarning,0822.7,5.00,000.00,018.2,017.4,000.0,026.9,020.0,15.1,0000.0,0008.85,0004.41,0004.04
2024-02-14 12:49:00,SystemResetWarning,0822.9,5.00,000.00,018.2,017.4,000.0,026.9,020.0,15.2,0000.0,0009.58,0004.39,0004.02
2024-02-14 12:50:00,SystemResetWarning,0822.5,5.01,000.00,018.2,017.4,000.0,026.9,020.0,15.1,0000.0,0008.93,0004.39,0004.01
2024-02-14 12:51:00,SystemResetWarning,0822.4,5.00,000.00,018.3,017.4,000.0,026.9,020.0,15.2,0000.0,0008.89,0004.39,0004.00
2024-02-14 12:52:00,SystemResetWarning,0822.3,5.00,000.00,018.3,017.4,000.0,026.9,020.0,14.6,0000.0,0008.87,0004.38,0003.99
2024-02-14 12:53:00,SystemResetWarning,0822.4,4.98,000.00,018.2,017.4,000.0,026.9,020.0,14.3,0000.0,0009.03,0004.41,0004.01
2024-02-14 12:54:00,SystemResetWarning,0822.4,5.00,000.00,018.2,017.4,000.0,026.9,020.0,15.1,0000.0,0009.33,0004.40,0004.00
2024-02-14 12:55:00,SystemResetWarning,0822.4,5.01,000.00,018.2,017.4,000.0,026.9,020.0,15.1,0000.0,0009.41,0004.40,0003.99
2024-02-14 12:56:00,SystemResetWarning,0822.4,5.01,000.00,018.2,017.4,000.0,026.9,020.0,15.0,0000.0,0009.77,0004.38,0003.97
2024-02-14 12:57:00,SystemResetWarning,0822.4,4.99,000.00,018.2,017.4,000.0,026.9,020.0,14.3,0000.0,0009.62,0004.36,0003.93
2024-02-14 12:58:00,SystemResetWarning,0822.4,4.99,000.00,018.3,017.5,000.0,027.0,020.1,14.9,0000.0,0009.53,0004.34,0003.90
2024-02-14 12:59:00,SystemResetWarning,0822.5,5.01,000.00,018.4,018.2,000.0,027.0,020.4,15.0,0000.0,0009.79,0004.30,0003.86
